Wetbulb
51.44 51.61 51.23 50.72 49.86 50.05 50.19 50.15 50.06 50.04 50.16 49.66 48.74 48.53 48.09 48.89 48.92 49.46 49.78 49.50 49.37 49.15 48.67 48.57 48.54 48.58 47.67 47.54 47.25 46.88 46.41 46.68 47.44 46.04 46.03 47.23 47.14 46.05 46.35 47.40 46.29 46.41 46.54
50.53 51.02 50.89 50.34 49.40 49.16 49.72 50.17 50.23 50.50 50.48 50.76 49.95 49.68 49.45 49.79 49.76 49.82 49.32 49.47 49.20 49.06 48.57 48.42 48.24 48.41 47.72 47.66 47.40 46.64 45.48 46.30 47.06 43.65 43.85 41.93 44.26 45.68 46.46 45.96 46.00 45.46 46.26
50.05 50.33 50.46 50.27 50.09 49.07 49.50 49.61 50.43 50.43 50.68 50.45 50.56 50.02 50.27 49.95 48.71 48.86 48.85 49.31 48.99 49.02 48.73 48.47 48.26 48.17 48.02 46.99 47.46 46.81 45.75 44.03 45.82 45.91 42.66 40.39 39.09 41.19 45.75 45.73 46.04 46.65 46.38
51.35 51.25 50.77 50.35 49.96 50.19 51.70 50.54 50.65 50.44 50.69 51.42 49.80 48.60 47.68 46.42 48.11 48.82 49.47 49.52 49.05 48.62 48.66 48.47 48.39 47.99 47.98 47.20 47.31 47.49 46.30 45.66 43.50 45.44 45.43 44.55 43.05 38.70 37.94 43.58 44.26 45.77 45.84
51.31 50.89 51.27 51.53 51.35 52.17 51.63 51.34 51.76 51.47 51.93 51.45 50.89 49.56 48.63 49.07 49.95 50.32 50.06 49.75 49.85 48.99 48.41 48.39 48.15 47.73 47.83 47.54 47.24 47.04 46.14 46.05 44.69 44.10 44.06 44.02 44.03 43.60 40.36 37.60 40.21 44.13 45.70
51.01 51.59 52.40 52.51 52.29 53.91 53.52 52.84 51.43 51.05 51.72 51.64 51.34 50.15 49.72 49.14 49.07 49.43 48.53 48.70 49.07 49.13 48.62 48.66 48.47 48.35 47.96 47.46 47.40 47.18 46.60 45.95 45.55 45.22 44.32 42.96 41.59 41.23 40.88 39.71 40.10 39.69 43.18
50.92 51.23 51.19 51.53 52.53 53.47 53.71 52.39 51.62 50.60 51.11 51.16 50.88 50.50 50.22 50.73 50.02 49.56 48.76 48.22 47.93 48.01 48.59 48.69 48.22 47.99 48.66 48.36 47.93 47.10 46.77 46.26 45.50 45.01 44.35 44.86 43.89 44.15 42.94 41.35 40.19 39.38 42.13
51.76 52.23 52.80 53.08 53.07 53.18 53.42 52.93 51.27 50.74 50.93 50.62 50.65 50.86 50.73 50.19 50.17 50.31 49.71 49.03 48.72 48.70 49.05 48.94 48.64 48.26 48.16 48.11 47.73 47.09 46.83 46.86 46.38 45.79 45.29 44.72 44.43 44.57 44.02 42.28 40.47 38.08 39.38
52.11 52.58 53.37 53.44 53.65 53.53 52.98 52.15 52.14 51.33 51.09 51.05 50.91 50.68 50.56 49.82 49.59 50.27 50.67 50.05 49.99 49.17 49.46 48.84 48.36 48.21 47.85 47.42 47.21 46.17 45.71 46.03 45.81 45.32 45.58 44.62 44.83 44.86 44.45 44.15 43.29 39.78 35.97
51.91 52.28 52.87 53.21 53.72 53.62 53.23 52.90 52.05 51.29 51.57 51.62 51.26 50.45 50.27 50.11 50.02 50.40 49.68 49.61 49.95 49.53 48.81 48.45 48.12 47.62 47.19 46.88 46.54 45.98 45.97 45.52 45.61 45.50 44.74 44.63 44.58 44.15 44.58 44.43 43.96 42.55 40.32
51.93 52.25 52.11 53.12 53.36 52.92 52.34 51.78 51.20 50.57 50.42 50.96 51.03 50.58 50.09 49.98 50.10 49.60 49.67 49.63 49.67 49.08 48.28 47.55 47.20 46.73 46.23 46.28 45.75 45.59 45.23 44.72 44.81 45.17 44.62 44.11 44.45 43.38 43.93 44.57 43.70 42.67 42.46
52.15 51.91 52.30 53.23 52.18 52.05 51.60 51.35 50.58 49.92 50.05 50.34 50.21 49.92 50.17 49.71 49.46 49.23 49.11 49.36 48.94 49.03 48.21 47.53 46.84 46.44 46.18 46.08 45.28 44.67 44.61 44.17 43.89 44.24 43.97 43.70 43.56 42.76 43.16 43.30 42.81 42.88 43.28
51.90 51.78 52.70 52.48 52.12 51.41 50.64 50.51 50.37 50.10 49.92 49.40 48.93 49.42 49.28 49.12 48.92 49.09 48.87 48.68 48.66 48.50 48.18 47.63 46.52 46.02 45.94 45.67 45.46 45.01 44.52 44.30 44.12 44.02 43.51 43.28 43.09 41.76 42.44 42.71 42.65 43.45 43.21
51.77 52.12 52.29 52.27 52.31 51.34 49.89 49.53 49.24 49.20 49.12 48.32 48.12 48.26 48.38 48.82 49.11 49.29 48.67 48.07 48.20 47.59 47.77 47.51 46.80 46.40 46.16 45.77 45.46 45.01 44.49 44.15 44.17 44.24 43.78 43.14 42.64 41.74 42.16 42.31 42.63 42.77 42.52
50.85 51.56 51.97 52.12 51.92 50.95 50.02 49.40 49.12 48.56 48.05 46.91 47.01 46.97 47.91 48.72 48.79 48.55 48.33 48.24 47.93 47.64 47.60 47.31 47.00 46.65 45.96 45.52 45.31 44.92 44.48 43.95 43.50 43.76 43.44 43.12 43.64 44.68 44.03 42.24 42.68 42.46 41.78
50.80 51.47 51.51 51.20 50.38 50.20 49.08 48.71 48.44 48.19 47.46 46.18 46.20 47.08 47.23 47.39 48.22 47.91 47.54 47.63 47.64 47.07 47.28 46.74 46.59 46.14 45.47 47.37 47.72 46.10 44.23 44.02 43.41 42.53 42.87 42.89 43.92 43.89 45.39 45.58 45.79 44.78 42.30
50.76 50.58 50.92 50.55 50.37 49.52 48.94 48.41 48.28 47.94 46.64 46.30 46.81 46.63 46.67 46.44 46.97 46.94 46.84 46.70 46.57 47.10 46.56 46.45 46.47 45.83 45.98 48.20 48.46 47.81 44.97 44.05 43.62 43.07 42.72 42.24 42.30 43.05 42.05 44.68 46.34 46.50 46.22
50.45 50.72 50.31 50.52 50.63 49.96 49.05 48.77 47.46 47.16 46.63 46.20 46.41 46.86 46.46 46.01 46.38 46.56 46.37 46.43 46.37 46.10 46.05 46.38 46.46 46.17 45.90 48.48 48.62 48.00 45.38 44.50 44.16 43.87 43.25 42.48 41.84 42.24 42.18 42.12 41.99 41.97 42.27
50.50 50.60 50.84 51.43 51.31 50.26 50.21 48.33 47.87 47.51 46.75 46.55 46.60 46.92 46.67 46.25 46.43 46.19 46.11 46.36 46.02 45.91 45.93 46.31 46.17 45.84 45.59 48.25 48.66 47.45 45.25 44.54 44.34 44.81 44.89 43.75 42.80 44.44 45.25 42.18 40.94 40.25 40.76
50.72 49.93 50.62 49.88 50.21 51.26 50.43 48.60 48.74 48.67 47.80 48.31 48.14 47.83 47.49 46.60 46.27 47.05 47.05 47.17 46.94 46.09 46.02 45.86 46.25 46.88 45.76 47.88 48.53 47.28 45.08 44.21 44.28 45.05 45.22 46.88 44.36 45.17 45.38 42.46 41.17 37.96 37.56
50.39 50.91 50.33 49.85 50.63 51.91 50.41 48.63 49.60 49.56 50.83 50.38 48.67 47.85 47.55 47.20 47.32 47.57 47.66 47.08 46.26 46.18 45.80 45.20 45.31 45.46 45.94 45.88 48.25 48.08 44.85 44.27 43.93 43.77 43.97 44.59 46.20 45.61 45.33 45.20 42.04 40.85 40.84
51.48 50.20 50.13 50.66 51.50 52.60 50.24 49.10 49.96 52.21 52.09 49.75 47.96 47.94 48.42 47.67 46.41 46.51 46.53 46.08 45.47 44.25 44.30 44.09 43.89 44.92 45.41 47.26 47.37 48.44 47.62 46.62 44.25 43.59 44.44 44.43 45.90 45.28 45.52 44.59 44.79 44.56 43.90
51.86 51.56 51.21 51.19 52.41 52.26 51.03 49.06 50.68 52.28 50.99 48.74 48.26 48.22 48.83 48.13 47.64 46.07 45.40 44.08 44.45 43.57 43.01 42.70 42.30 43.06 44.96 45.05 47.69 47.33 48.12 47.89 45.72 45.13 45.81 46.07 46.03 44.87 44.82 45.56 45.19 45.08 42.31
51.63 51.82 51.25 50.57 50.69 52.26 51.70 50.47 51.09 51.92 49.12 47.41 47.45 47.55 46.73 45.99 45.81 45.40 45.05 43.86 43.37 43.24 42.66 42.13 42.09 42.64 43.22 44.09 44.98 44.50 44.35 46.87 46.34 46.73 45.62 45.27 44.28 44.07 43.61 43.46 43.97 43.05 41.59
52.22 52.52 51.60 50.58 50.69 51.68 51.80 51.85 50.82 50.45 47.19 46.59 46.41 45.98 45.47 44.47 44.23 44.59 44.53 44.16 44.62 44.24 42.99 43.42 43.23 42.77 41.88 43.46 45.74 44.73 43.07 43.58 44.91 45.68 44.65 42.50 40.99 40.41 40.93 41.17 41.69 42.00 40.84
52.19 51.90 51.98 50.89 50.41 50.67 51.01 51.08 50.73 48.76 46.70 45.19 45.04 45.10 44.83 44.16 43.57 43.01 42.92 45.63 45.33 45.09 44.91 45.02 44.18 43.36 45.43 46.67 45.82 46.76 45.78 45.32 46.27 43.89 42.22 41.99 40.86 39.82 39.97 39.85 40.15 40.67 40.93
MSLP
1016.38 1017.29 1018.49 1019.45 1020.22 1020.82 1021.55 1022.06 1022.59 1023.20 1023.80 1024.37 1024.65 1024.87 1025.09 1025.44 1025.76 1026.01 1026.13 1026.29 1026.45 1026.69 1026.94 1026.86 1026.77 1026.94 1026.91 1026.74 1026.95 1026.81 1026.52 1026.20 1026.13 1025.53 1024.96 1024.24 1024.48 1024.68 1024.69 1024.27 1024.66 1024.64 1024.54
1015.39 1016.36 1017.56 1018.73 1019.49 1020.12 1020.76 1021.44 1021.99 1022.54 1023.08 1023.53 1023.99 1024.29 1024.46 1024.61 1024.89 1025.29 1025.57 1025.85 1026.13 1026.35 1026.48 1026.53 1026.53 1026.44 1026.57 1026.60 1026.63 1026.69 1026.65 1026.32 1026.21 1026.14 1025.44 1024.49 1024.37 1024.53 1024.32 1024.53 1024.60 1024.55 1024.43
1014.55 1015.49 1016.79 1017.68 1018.71 1019.21 1019.86 1020.51 1021.01 1021.75 1022.33 1022.89 1023.34 1023.82 1024.06 1024.34 1024.48 1024.69 1024.94 1025.18 1025.51 1025.80 1026.13 1026.21 1026.18 1026.19 1026.35 1026.39 1026.34 1026.47 1026.60 1026.47 1026.30 1026.25 1026.33 1025.57 1025.06 1024.98 1024.20 1024.25 1024.34 1024.11 1023.97
1014.18 1014.79 1015.80 1016.77 1017.59 1018.27 1019.13 1019.72 1020.43 1020.85 1021.44 1022.17 1022.83 1023.21 1023.41 1023.64 1023.94 1024.08 1024.23 1024.47 1024.78 1025.15 1025.52 1025.78 1025.82 1025.85 1025.84 1025.97 1026.01 1026.09 1026.37 1026.41 1026.26 1026.09 1026.14 1026.22 1026.09 1025.56 1024.79 1024.42 1024.61 1024.23 1023.61
1013.69 1014.34 1014.92 1015.69 1016.62 1017.33 1018.06 1018.73 1019.22 1019.86 1020.50 1021.05 1021.55 1022.05 1022.54 1022.85 1023.09 1023.32 1023.63 1023.93 1024.11 1024.43 1024.68 1025.04 1025.22 1025.37 1025.47 1025.49 1025.54 1025.64 1025.89 1026.01 1026.08 1026.04 1025.89 1025.83 1025.74 1025.66 1025.40 1024.53 1024.33 1024.00 1023.68
1013.44 1013.97 1014.45 1015.14 1015.71 1016.63 1017.31 1017.84 1018.33 1018.83 1019.55 1019.95 1020.54 1021.07 1021.36 1021.91 1022.16 1022.49 1022.98 1023.42 1023.70 1023.85 1024.15 1024.35 1024.63 1024.70 1024.87 1025.06 1025.30 1025.44 1025.53 1025.57 1025.64 1025.73 1025.78 1025.73 1025.59 1025.33 1025.16 1024.80 1024.40 1024.22 1023.56
1013.24 1013.65 1014.17 1014.61 1015.07 1015.72 1016.38 1017.11 1017.68 1018.01 1018.62 1019.13 1019.74 1020.33 1020.89 1021.11 1021.33 1021.58 1021.95 1022.41 1022.79 1023.09 1023.35 1023.71 1023.97 1024.24 1024.44 1024.64 1024.81 1024.97 1025.11 1025.19 1025.30 1025.32 1025.29 1025.23 1025.22 1025.20 1025.09 1024.85 1024.47 1024.00 1023.54
1013.00 1013.38 1013.78 1014.19 1014.54 1015.02 1015.51 1016.14 1016.73 1017.21 1017.63 1018.15 1018.73 1019.39 1019.97 1020.46 1020.75 1020.96 1021.27 1021.57 1021.78 1022.02 1022.55 1023.00 1023.41 1023.57 1023.77 1024.12 1024.39 1024.56 1024.73 1024.76 1024.85 1024.92 1024.98 1024.97 1024.90 1024.88 1024.76 1024.65 1024.54 1023.88 1023.45
1012.76 1013.06 1013.38 1013.81 1014.11 1014.42 1014.72 1015.32 1015.78 1016.32 1016.90 1017.28 1017.76 1018.30 1019.02 1019.50 1019.58 1019.96 1020.35 1020.65 1020.96 1021.26 1021.69 1022.19 1022.59 1022.91 1023.11 1023.35 1023.80 1024.06 1024.15 1024.29 1024.42 1024.52 1024.57 1024.62 1024.52 1024.45 1024.38 1024.34 1024.32 1024.13 1023.49
1012.47 1012.71 1012.92 1013.21 1013.40 1013.69 1014.09 1014.53 1014.99 1015.41 1015.95 1016.53 1017.02 1017.45 1017.74 1018.20 1018.74 1019.13 1019.43 1019.79 1020.09 1020.61 1020.96 1021.46 1021.88 1022.22 1022.41 1022.77 1023.06 1023.39 1023.53 1023.71 1023.85 1023.99 1024.11 1024.09 1024.04 1024.00 1023.92 1023.96 1023.98 1023.95 1023.61
1011.99 1012.17 1012.54 1012.78 1012.93 1013.34 1013.70 1014.10 1014.44 1014.70 1015.06 1015.48 1015.94 1016.28 1016.73 1017.30 1017.80 1018.22 1018.48 1018.82 1019.34 1019.69 1020.16 1020.63 1021.12 1021.42 1021.72 1021.89 1022.24 1022.38 1022.71 1022.85 1023.02 1023.29 1023.46 1023.55 1023.69 1023.60 1023.50 1023.49 1023.51 1023.41 1023.26
1011.72 1011.93 1012.03 1011.89 1012.41 1012.59 1013.01 1013.43 1013.79 1014.08 1014.34 1014.80 1015.22 1015.74 1016.30 1016.68 1017.07 1017.42 1017.96 1018.32 1018.47 1018.90 1019.21 1019.54 1019.98 1020.49 1020.86 1021.18 1021.33 1021.64 1021.72 1022.05 1022.35 1022.44 1022.63 1022.71 1023.00 1023.07 1023.10 1023.07 1023.04 1022.90 1022.69
1011.17 1011.25 1011.11 1011.09 1011.58 1012.04 1012.42 1012.74 1013.09 1013.46 1013.83 1014.18 1014.49 1014.93 1015.47 1015.97 1016.16 1016.41 1016.97 1017.47 1017.79 1018.07 1018.55 1018.91 1019.26 1019.62 1019.92 1020.21 1020.46 1020.60 1020.98 1021.12 1021.22 1021.63 1021.81 1021.83 1022.07 1022.26 1022.40 1022.51 1022.38 1022.34 1022.17
1010.48 1010.47 1010.72 1010.99 1011.29 1011.59 1011.93 1012.22 1012.63 1013.05 1013.53 1014.00 1014.17 1014.43 1014.73 1015.14 1015.59 1015.83 1016.05 1016.29 1016.63 1017.05 1017.25 1017.71 1018.17 1018.56 1018.98 1019.38 1019.64 1019.83 1019.98 1020.19 1020.41 1020.56 1020.88 1021.14 1021.31 1021.49 1021.66 1021.84 1021.81 1021.74 1021.71
1010.21 1010.30 1010.47 1010.61 1010.88 1011.27 1011.62 1012.00 1012.42 1012.83 1013.17 1013.58 1013.82 1013.98 1014.37 1014.82 1014.95 1015.49 1015.71 1015.93 1015.97 1016.14 1016.54 1016.80 1017.16 1017.61 1017.93 1018.18 1018.50 1018.87 1019.19 1019.36 1019.62 1019.79 1019.86 1020.09 1020.43 1020.74 1020.96 1021.19 1021.32 1021.34 1021.30
1010.04 1009.97 1010.14 1010.51 1010.85 1011.17 1011.56 1011.94 1012.25 1012.59 1012.97 1013.22 1013.39 1013.56 1013.75 1014.20 1014.73 1014.91 1015.34 1015.50 1015.52 1015.76 1015.99 1016.07 1016.10 1016.35 1016.71 1016.93 1017.39 1017.92 1018.29 1018.61 1018.76 1018.94 1019.14 1019.33 1019.54 1019.83 1020.13 1020.43 1020.72 1020.97 1020.83
1009.85 1009.97 1010.05 1010.44 1010.68 1011.05 1011.42 1011.66 1011.89 1012.29 1012.72 1012.90 1012.99 1013.29 1013.46 1013.67 1013.98 1014.09 1014.45 1014.65 1014.87 1015.08 1015.04 1015.23 1015.55 1015.50 1015.74 1016.27 1016.62 1017.06 1017.42 1017.74 1017.91 1018.00 1018.25 1018.56 1018.58 1018.92 1019.37 1019.61 1019.84 1019.94 1020.05
1009.99 1010.00 1010.27 1010.58 1010.85 1011.07 1011.35 1011.62 1012.10 1012.38 1012.63 1012.77 1012.78 1012.98 1013.28 1013.36 1013.63 1013.94 1013.94 1014.01 1014.07 1014.13 1014.30 1014.33 1014.47 1014.76 1015.11 1015.26 1015.60 1016.16 1016.58 1016.62 1016.94 1017.20 1017.29 1017.52 1017.94 1018.01 1018.42 1018.95 1019.07 1019.16 1019.20
1010.26 1010.24 1010.29 1010.61 1010.97 1011.24 1011.35 1011.57 1011.73 1011.96 1012.17 1012.25 1012.42 1012.44 1012.67 1013.10 1013.13 1013.15 1013.26 1013.34 1013.36 1013.24 1013.08 1013.14 1013.34 1013.58 1013.78 1014.26 1014.78 1015.26 1015.61 1015.83 1015.73 1016.03 1016.49 1016.88 1017.06 1017.39 1017.66 1018.12 1018.48 1018.54 1018.45
1010.26 1010.39 1010.37 1010.39 1010.75 1011.00 1011.26 1011.35 1011.22 1011.28 1011.44 1011.60 1011.83 1012.03 1012.31 1012.19 1012.52 1012.75 1012.80 1012.74 1012.66 1012.60 1012.62 1012.34 1012.18 1012.37 1012.70 1013.16 1013.58 1014.27 1014.68 1014.65 1014.63 1014.85 1015.21 1015.69 1016.14 1016.53 1016.89 1017.24 1017.78 1018.11 1018.20
1009.74 1009.95 1010.20 1010.11 1010.01 1010.36 1010.84 1010.91 1010.72 1010.57 1010.64 1010.93 1011.21 1011.59 1011.88 1012.24 1012.24 1012.19 1012.23 1012.32 1012.49 1012.45 1012.31 1012.27 1011.99 1011.70 1011.67 1011.90 1012.48 1013.05 1013.54 1013.62 1013.47 1013.39 1013.77 1014.27 1014.92 1015.59 1016.03 1016.42 1016.77 1017.04 1017.71
1009.22 1009.46 1009.60 1009.58 1009.73 1009.86 1010.34 1010.23 1010.04 1009.91 1010.13 1010.37 1010.50 1010.58 1010.82 1011.19 1011.39 1011.59 1011.65 1011.78 1011.70 1011.57 1011.36 1011.60 1011.75 1011.45 1011.15 1010.97 1011.00 1011.43 1011.99 1012.38 1012.37 1012.18 1012.37 1012.97 1013.84 1014.40 1014.95 1015.56 1015.97 1016.34 1016.72
1008.33 1008.51 1008.69 1008.80 1008.93 1009.16 1009.57 1009.70 1009.23 1009.49 1009.79 1010.13 1010.43 1010.41 1010.25 1010.30 1010.61 1010.90 1011.06 1011.21 1011.16 1011.12 1010.80 1010.38 1010.12 1010.14 1010.00 1010.20 1010.18 1010.11 1010.56 1011.15 1011.59 1011.46 1011.68 1012.12 1012.66 1013.51 1014.06 1014.53 1015.08 1015.64 1015.92
1007.61 1007.69 1007.82 1007.85 1007.97 1008.09 1008.24 1008.48 1008.85 1009.09 1009.40 1009.68 1009.43 1009.63 1009.70 1009.75 1009.94 1010.05 1010.18 1010.17 1010.43 1010.19 1010.04 1010.05 1009.40 1009.14 1009.25 1009.26 1009.42 1009.53 1009.70 1010.09 1010.75 1011.26 1011.27 1011.76 1012.23 1012.75 1013.23 1013.72 1014.23 1014.65 1015.04
1006.94 1006.80 1006.75 1007.02 1007.10 1007.15 1007.45 1007.73 1008.00 1008.38 1008.88 1008.93 1009.00 1009.08 1009.33 1009.53 1009.62 1009.64 1009.69 1009.70 1009.32 1009.53 1009.25 1008.74 1008.70 1008.43 1008.20 1008.26 1008.53 1008.64 1008.55 1008.80 1009.19 1010.03 1010.74 1011.19 1011.79 1012.21 1012.60 1012.82 1013.21 1013.75 1014.29
1006.35 1006.17 1006.10 1006.23 1006.31 1006.27 1006.53 1006.88 1007.04 1007.49 1007.96 1008.36 1008.51 1008.82 1009.05 1009.10 1009.37 1009.44 1009.21 1009.06 1008.94 1008.81 1008.90 1008.60 1008.31 1007.80 1007.51 1007.55 1007.80 1008.27 1008.10 1008.10 1008.27 1008.99 1009.23 1009.80 1010.52 1011.05 1011.38 1011.79 1012.22 1012.70 1013.21
Wind_Speed
14 16 16 15 15 15 14 14 14 13 10 9 8 8 8 7 7 7 9 8 7 7 7 5 5 4 4 3 3 4 5 4 5 6 7 4 4 3 5 3 5 6 8
15 16 17 17 17 17 16 16 15 15 12 9 8 8 7 8 8 7 9 10 10 9 8 7 6 6 4 5 4 3 4 5 3 4 6 4 1 3 6 3 5 8 7
15 15 16 17 17 19 18 17 17 16 15 15 9 7 6 5 6 7 7 9 11 11 10 9 8 7 6 5 5 4 4 4 4 2 3 3 3 8 2 6 3 7 5
13 13 15 17 18 18 15 17 17 18 16 16 12 14 9 9 8 8 8 8 12 12 11 11 10 9 6 7 6 5 4 4 5 3 3 4 5 3 6 4 8 9 9
13 14 14 16 17 16 15 15 16 16 16 15 16 12 13 9 7 7 8 9 9 12 12 12 11 10 7 8 8 6 7 5 5 4 4 5 5 6 7 9 8 7 8
9 12 12 13 14 13 14 14 16 17 17 17 17 17 15 13 9 9 7 7 7 7 11 11 10 10 9 9 7 8 8 7 6 5 5 5 5 6 6 8 9 10 9
6 9 11 13 13 13 14 14 16 17 17 18 17 17 17 15 14 12 10 9 8 7 9 11 10 8 8 8 7 8 8 8 7 7 6 5 6 6 7 7 8 8 8
5 6 7 9 11 12 14 15 16 17 17 18 18 16 17 11 11 12 9 9 9 9 10 10 10 11 10 9 8 6 6 8 7 8 7 5 6 5 6 6 7 9 8
7 6 6 7 8 10 13 14 15 16 17 17 15 17 16 16 14 15 12 9 10 8 10 11 11 11 10 10 9 7 8 8 7 8 8 7 6 6 6 6 6 7 9
8 5 5 7 8 9 9 11 13 15 15 15 15 14 16 16 15 13 14 13 11 12 10 11 11 11 11 10 10 8 9 9 7 6 9 8 6 7 6 6 6 7 8
11 10 8 9 9 7 7 8 10 13 13 13 14 15 14 15 15 14 14 13 13 13 13 13 13 13 12 12 11 12 11 11 10 9 9 10 9 7 6 6 6 7 7
11 12 13 11 8 8 6 7 8 10 11 11 12 13 13 14 15 14 14 13 14 13 14 14 14 13 13 13 13 12 11 12 11 10 10 10 8 9 8 6 8 8 8
13 14 15 12 9 6 6 6 7 8 9 10 11 11 12 13 14 14 13 14 14 14 14 14 14 14 14 14 14 13 12 12 12 11 11 10 10 10 8 8 7 7 7
14 14 11 10 8 5 7 6 5 5 6 8 10 10 12 12 12 12 13 14 14 14 15 15 14 14 14 14 13 13 13 13 12 11 11 11 11 10 9 8 8 8 7
14 13 12 10 8 7 6 4 3 4 5 7 9 10 10 10 11 11 12 12 13 13 14 14 14 13 14 12 15 14 14 13 12 11 11 11 13 17 14 7 7 7 5
13 12 12 8 8 7 5 3 4 4 5 7 8 8 9 10 9 10 11 12 12 13 13 14 15 15 12 19 22 16 13 13 13 12 12 12 16 17 20 19 19 14 8
12 12 9 8 6 6 4 5 4 4 5 6 7 8 8 9 9 10 11 12 12 13 14 14 14 15 15 21 22 23 13 12 13 13 11 10 10 15 11 16 19 20 19
10 7 6 6 7 6 5 4 3 4 5 6 6 7 8 9 9 9 10 10 10 12 12 13 14 14 12 21 23 24 16 13 14 13 13 12 11 11 12 10 10 10 10
9 7 5 5 6 6 5 4 5 6 6 6 7 7 8 8 8 10 10 10 10 11 12 12 14 15 14 20 22 20 15 15 15 13 13 13 12 16 19 11 10 9 8
7 7 7 7 8 8 6 6 7 7 7 7 6 6 6 7 8 9 9 9 10 11 9 12 12 16 14 19 21 20 12 14 11 13 14 20 15 20 21 12 10 8 6
9 8 9 10 10 9 8 9 9 9 7 4 5 5 6 7 7 7 7 8 9 9 10 11 11 12 14 14 19 23 14 12 11 11 10 11 23 24 22 21 11 11 8
11 11 10 10 11 8 9 11 11 8 6 7 6 7 7 6 6 7 7 8 8 9 10 10 10 9 12 17 19 23 27 21 13 12 10 10 19 24 25 19 20 18 15
10 10 10 11 11 10 11 12 13 8 6 7 7 7 7 7 7 7 7 7 8 8 9 8 8 9 9 10 20 22 24 27 17 10 11 15 18 23 20 24 21 20 9
11 10 11 13 13 12 14 15 10 7 7 9 8 7 7 6 6 5 6 6 7 8 8 9 9 8 8 8 8 10 12 20 17 18 11 9 12 16 15 14 16 10 8
11 11 10 11 13 13 13 13 11 10 10 10 8 7 5 6 6 6 6 7 8 9 9 9 8 8 8 8 10 11 9 10 14 13 10 8 8 9 9 9 10 10 9
13 11 10 11 14 13 12 12 12 12 11 9 6 5 4 3 4 5 7 10 15 17 18 19 15 10 14 11 9 12 15 12 16 13 10 11 11 11 11 11 11 11 14
Wind_Direction
211 201 203 203 207 210 210 211 207 206 204 206 208 212 215 214 221 225 233 225 227 221 232 247 249 237 261 306 292 305 310 319 340 306 328 261 214 277 276 332 328 333 340
209 205 199 204 209 211 211 213 212 209 205 208 211 217 221 219 217 218 222 225 224 226 227 232 242 243 255 249 258 284 306 299 347 330 292 324 283 211 337 311 327 311 329
212 208 203 207 210 216 211 214 214 211 209 208 207 212 226 230 222 222 221 220 221 220 224 235 235 238 242 255 255 263 274 302 313 317 309 333 326 337 127 322 312 313 312
216 215 206 212 215 218 217 214 215 215 213 204 211 209 212 210 216 220 213 216 216 219 221 226 230 238 234 236 243 235 246 260 281 304 191 269 291 319 317 328 332 332 314
221 216 221 215 218 216 215 219 212 215 211 209 204 210 213 217 216 209 220 210 209 218 218 220 226 230 233 240 240 232 228 238 255 272 287 280 273 270 273 304 306 307 324
214 222 221 224 226 213 212 215 218 213 211 210 207 211 210 213 214 209 204 218 216 209 219 218 224 230 228 233 237 240 242 247 249 251 261 267 276 289 295 296 310 314 307
188 207 213 220 223 219 215 214 219 222 214 213 213 209 215 215 213 210 206 205 209 209 210 212 215 219 226 231 233 238 238 239 241 248 252 255 259 266 274 283 294 297 310
186 195 214 225 231 224 223 218 221 224 222 216 215 214 211 215 217 216 211 211 216 209 205 207 213 219 219 218 227 232 235 244 242 246 249 257 260 263 265 272 291 299 301
195 202 218 235 249 245 233 229 226 227 226 225 217 213 213 214 215 215 213 216 212 212 212 205 207 214 220 217 216 227 233 234 240 246 240 243 253 255 258 265 269 283 296
218 231 275 282 270 261 255 241 236 234 230 229 225 220 216 216 215 216 212 212 213 211 208 208 209 212 212 218 216 222 231 239 241 239 246 248 248 252 250 255 264 266 276
236 255 306 309 289 258 257 251 246 240 237 229 223 224 220 221 220 217 218 213 210 207 209 207 210 214 214 212 217 217 225 229 231 234 239 247 252 254 257 252 254 259 264
272 283 281 293 280 256 247 246 243 243 238 237 236 230 225 224 225 223 219 217 215 214 211 210 210 212 213 215 217 221 219 223 233 234 236 240 241 245 250 255 257 259 268
280 275 282 291 275 259 266 251 242 245 245 237 235 228 228 227 229 226 221 221 221 217 217 215 214 214 216 214 217 219 222 226 224 230 235 234 230 238 239 244 249 257 266
291 292 291 281 270 244 248 252 266 262 250 239 236 231 227 226 230 231 224 221 219 218 216 213 217 216 216 219 220 220 222 225 228 225 229 237 235 235 241 245 254 258 263
286 285 285 278 260 244 253 255 256 243 228 226 230 229 230 232 223 230 231 233 226 225 225 223 216 218 217 217 216 217 219 221 227 225 221 226 231 239 238 237 242 256 259
301 297 281 268 253 240 243 239 242 230 215 219 228 227 219 224 229 229 233 236 233 228 232 228 224 216 218 219 217 215 216 219 221 224 225 223 228 234 239 241 242 248 261
310 306 285 266 238 224 217 227 226 206 210 225 223 224 223 227 228 219 225 229 231 234 231 231 232 228 222 222 221 217 221 216 220 220 220 224 219 220 224 235 239 245 253
313 304 276 248 238 221 214 216 207 216 222 228 229 225 227 227 229 235 233 233 231 231 236 236 233 235 232 228 221 222 219 222 226 225 220 218 225 214 206 222 225 231 234
300 288 276 252 235 230 219 211 214 217 217 226 231 225 220 233 231 231 233 235 234 234 229 228 231 231 232 227 227 217 220 223 223 223 221 219 220 224 220 211 219 230 236
278 271 250 230 232 229 218 225 227 224 227 225 222 234 233 226 230 241 239 237 235 242 242 241 230 231 237 230 221 216 221 225 222 219 221 218 218 222 222 213 209 216 225
271 245 252 240 228 222 211 230 237 230 230 196 214 223 243 251 256 252 244 244 249 254 250 250 246 238 233 231 228 216 219 228 223 217 214 210 215 224 222 215 208 211 199
265 246 245 243 243 225 216 233 236 232 216 213 217 224 227 231 240 245 254 250 245 244 244 248 257 249 241 232 226 221 219 225 227 221 214 205 207 217 220 217 216 216 208
268 257 239 245 242 225 216 233 236 227 212 225 235 242 243 244 244 254 254 246 245 246 252 245 241 245 232 233 228 221 223 223 235 228 219 201 196 213 219 216 213 214 212
265 261 248 241 245 235 223 224 236 223 215 236 234 238 238 244 258 242 244 242 251 245 241 250 247 245 245 238 225 218 224 231 227 235 225 205 196 201 209 212 213 209 204
268 264 253 251 248 250 237 225 214 212 219 230 239 243 244 248 259 255 254 256 247 242 252 245 245 251 246 243 235 215 208 208 212 214 218 199 199 203 207 204 200 201 201
273 267 263 252 248 249 243 225 207 205 215 226 234 245 264 265 267 268 273 245 246 255 256 261 258 264 270 268 272 252 217 212 205 205 208 207 199 203 202 202 198 198 202